Regional Weather Roundup
Issued by NWS Grand Forks, ND

Home | Current Version | Previous Version | Graphics & Text | Print | Product List | Glossary On
Versions: 1 2 3 4 5 6 7 8 9 10 11 12 13 14 15 16 17 18 19 20 21 22 23 24 25 26 27 28 29 30 31 32 33 34 35 36 37 38 39 40 41 42 43 44 45 46 47 48 49 50
000
ASUS43 KFGF 181831
RWRFGF
PRAIRIE TO PINES  WEATHER ROUNDUP
NATIONAL WEATHER SERVICE EASTERN NORTH DAKOTA/GRAND FORKS ND
1200 PM CST SUN FEB 18 2018

 **SATELLITE DATA USED TO AUGMENT SKY COVER AT AUTOMATED STATIONS**
 *****  WEATHER ACROSS EASTERN NORTH DAKOTA  *****

CITY           SKY/WX    TMP DP  RH WIND       PRES   REMARKS
GRAND FORKS    LGT SNOW  13  10  88 N24       29.84F VSB 1   WCI  -7
6HR MIN TEMP:  11; 6HR MAX TEMP:  14; 6HR PCP:  0.10;

GRAND FRKS AFB CLOUDY    12   9  85 NE26      29.85R BLWGSNOWWCI  -8
GRAND FRKS NWS   N/A     13  11  92 N18       29.81F WCI  -4
DEVILS LAKE    LGT SNOW   9   3  78 NE23      29.85F WCI -12
6HR MIN TEMP:   6; 6HR MAX TEMP:   9; 6HR PCP: TRACE;

FARGO          LGT SNOW  20  16  84 NE17      29.69S FOG     WCI   5
WAHPETON ARPT  MOCLDY    30  19  64 NE9       29.61S WCI  22
$$

 ***** WEATHER ACROSS CENTRAL AND WESTERN NORTH DAKOTA  *****

CITY           SKY/WX    TMP DP  RH WIND       PRES   REMARKS
BISMARCK       LGT SNOW  12   7  80 N17G25    29.78S WCI  -5
6HR MIN TEMP:  12; 6HR MAX TEMP:  14; 6HR PCP:  0.01;

MINOT          FAIR      11   3  70 N16       29.87F WCI  -6
6HR MIN TEMP:   7; 6HR MAX TEMP:  10; 6HR PCP:  0.01;

JAMESTOWN      LGT SNOW  15  11  83 N22G30    29.74R FOG     WCI  -3
6HR MIN TEMP:  13; 6HR MAX TEMP:  15; 6HR PCP: TRACE;

MINOT AFB      DRIZZLE    9   1  72 NE16      29.87F WCI  -9
GARRISON         N/A      8   2  76 NE17G24   29.82S WCI -10
WILLISTON      CLOUDY    10   2  69 N9        29.94R WCI  -3
6HR MIN TEMP:   8; 6HR MAX TEMP:  10; 6HR PCP:  0.03;

DICKINSON      LGT SNOW   8   2  76 N22       29.77R WCI -12
6HR MIN TEMP:   6; 6HR MAX TEMP:  10; 6HR PCP: TRACE;

HETTINGER      LGT SNOW   9   3  77 N20       29.71S WCI -10
6HR MIN TEMP:   8; 6HR MAX TEMP:  15; 6HR PCP: TRACE;

$$

 *****  OTHER AIRPORT OBSERVATIONS IN OUR AREA  *****

CITY           SKY/WX    TMP DP  RH WIND       PRES   REMARKS
WALHALLA       FAIR       9  10 100 N13       29.94S FOG     WCI  -7
GRAFTON AIRPOR NOT AVBL
VALLEY CITY AR NOT AVBL
CANDO          CLOUDY    12   5  73 N15       29.90S WCI  -4
CAVALIER APRT    N/A     10   7  85 N13       29.94R WCI  -5
GWINNER          N/A     21  18  86 NE23      29.62S WCI   5
SHEYENNE NWR     N/A     21  17  86 NE15      29.95S WCI   8
ROLLA          CLOUDY     7   1  78 N15       29.88S WCI -11
 ***** THE ABOVE OBSERVATIONS ARE NON NWS ARE NOT QUALITY
       CONTROLLED AND MAY MIS-REPORT RAIN FOR SNOW...
$$

  *****  WEATHER ACROSS NORTHERN MINNESOTA  *****

CITY           SKY/WX    TMP DP  RH WIND       PRES   REMARKS
FLAG ISLAND    LGT SNOW   9   1  72 NE9       29.92S WCI  -5
WARROAD        LGT SNOW   7   3  85 NE9       29.90S VSB 1   WCI  -7
ROSEAU         NOT AVBL
HALLOCK        FAIR      12   9  85 N13       29.92R HAZE    WCI  -3
THF RVR FALLS  LGT SNOW  13   9  84 N15       29.81F VSB 3/4 WCI  -3
6HR MIN TEMP:   9; 6HR MAX TEMP:  13; 6HR PCP: TRACE;

BAUDETTE       LGT SNOW   9   4  80 NE8       29.86F VSB 1   WCI  -3
6HR MIN TEMP:  -1; 6HR MAX TEMP:   9; 6HR PCP: TRACE;

WASKISH        LGT SNOW  14  10  85 E9        29.79F WCI   2
CROOKSTON      LGT SNOW  16  10  79 N15       29.82R WCI   1
STEPHEN NDAWN    N/A     12   7  79 NE16        N/A  WCI  -4
GREENBUSH NDAW   N/A      9   7  92 N13         N/A  WCI  -7
$$
  *****  WEATHER ACROSS CENTRAL AND WEST MINNESOTA  *****

CITY           SKY/WX    TMP DP  RH WIND       PRES   REMARKS
FOSSTON        LGT SNOW  18  10  73 NE9G16    29.74F VSB 3/4 WCI   6
BEMIDJI        LGT SNOW  15  12  85 NE9       29.72F VSB 3/4 WCI   3
6HR MIN TEMP:  10; 6HR MAX TEMP:  15;

PARK RAPIDS    LGT SNOW  18  13  80 E9        29.66F VSB 3/4 WCI   7
6HR MIN TEMP:  12; 6HR MAX TEMP:  18; 6HR PCP:  0.05;

ELBOW LAKE     FAIR      29  20  69 SE12      29.57F WCI  19
6HR MIN TEMP:  19; 6HR MAX TEMP:  29;

WADENA         FAIR      23  12  63 NE8G16    29.62F WCI  14
DETROIT LAKES  LGT SNOW  21  18  86 E10       29.65F WCI  10
MOORHEAD       DRIZZLE   21  18  86 NE18G24   29.69R WCI   6
FERGUS FALLS   FAIR      25  16  68 E15       29.59F WCI  12
MORRIS MN      FAIR      37  23  56 SE9       29.53F
STAPLES        FAIR      25  10  54 E6        29.62F WCI  18
$$
  *****  WEATHER ELSEWHERE ACROSS MINNESOTA  *****

CITY           SKY/WX    TMP DP  RH WIND       PRES   REMARKS
DULUTH         CLOUDY    19  11  70 E17G25    29.75F WCI   4
6HR MIN TEMP:  12; 6HR MAX TEMP:  19; 6HR PCP:  0.10;

INTRNTL FALLS  SNOW       9   5  84 NE6       29.86F VSB 1/2 WCI  -1
6HR MIN TEMP:  -3; 6HR MAX TEMP:   9; 6HR PCP:  0.09;

ELY            SNOW      12  10  92 E6        29.82F VSB 1/4 WCI   3
CLOQUET        FAIR      19   9  63 E9        29.72F WCI   9
WHEATON        FAIR      34  21  60 NE5       29.58S
BRAINERD       CLOUDY    24   9  52 E7        29.66F WCI  16
6HR MIN TEMP:  16; 6HR MAX TEMP:  24; 6HR PCP:  0.01;

HIBBING        SNOW      15  12  88 E8        29.78F VSB 1/4 WCI   4
6HR MIN TEMP:   4; 6HR MAX TEMP:  15; 6HR PCP:  0.21;

ALEXANDRIA     CLOUDY    31  22  69 E9        29.57F WCI  23
6HR MIN TEMP:  19; 6HR MAX TEMP:  31;

SAINT CLOUD    FAIR      32  22  66 SE9       29.63F WCI  24
6HR MIN TEMP:  19; 6HR MAX TEMP:  32;

MINNEAPOLIS    CLOUDY    35  27  72 S22G33    29.67F WCI  23
6HR MIN TEMP:  21; 6HR MAX TEMP:  35;

$$

  *****  WEATHER ACROSS SOUTH DAKOTA  *****

CITY           SKY/WX    TMP DP  RH WIND       PRES   REMARKS
SIOUX FALLS    CLOUDY    42  28  57 S21G33    29.56S
6HR MIN TEMP:  29; 6HR MAX TEMP:  43;

BROOKINGS      FAIR      40  28  62 S18G25    29.50S
WATERTOWN      FAIR      39  27  62 SW12      29.48R
6HR MIN TEMP:  28; 6HR MAX TEMP:  39;

HURON          FAIR      38  28  67 NW12      29.51R
6HR MIN TEMP:  29; 6HR MAX TEMP:  39;

SISSETON         N/A     31  24  75 N7        29.56R WCI  24
ABERDEEN       FAIR      28  19  69 N20       29.58R WCI  15
6HR MIN TEMP:  25; 6HR MAX TEMP:  30;

MITCHELL       FAIR      43  28  55 SW10      29.52R
PIERRE         PTSUNNY   26  22  84 NW15      29.58R WCI  14
6HR MIN TEMP:  24; 6HR MAX TEMP:  30;

MOBRIDGE       CLOUDY    19  14  81 N23G30    29.62R WCI   2
RAPID CITY     LGT SNOW  20  14  77 N43G55    29.56R BLWGSNOWWCI  -1
6HR MIN TEMP:  18; 6HR MAX TEMP:  33;

$$

  *****  SOME WEATHER IN NEARBY STATES *****

CITY           SKY/WX    TMP DP  RH WIND       PRES   REMARKS
GLASGOW MT     CLOUDY     7  -1  70 N17       29.94R WCI -12
6HR MIN TEMP:   3; 6HR MAX TEMP:   9; 6HR PCP:  0.01;

GREAT FALLS MT LGT SNOW   4  -2  76 N8        29.92R WCI  -9
6HR MIN TEMP:  -1; 6HR MAX TEMP:   4; 6HR PCP:  0.02;

CHEYENNE WY    FAIR      57   7  13 W24G32    29.50F
6HR MIN TEMP:  30; 6HR MAX TEMP:  58;

SCOTTSBLUFF NE FAIR      63  17  17 W10       29.45F
6HR MIN TEMP:  43; 6HR MAX TEMP:  63;

OMAHA NE       PTSUNNY   51  27  39 S37G55    29.69F
6HR MIN TEMP:  34; 6HR MAX TEMP:  51;

DES MOINES IA  PTSUNNY   49  26  41 S25G38    29.86F
6HR MIN TEMP:  28; 6HR MAX TEMP:  49;

DAVENPORT IA   FAIR      36  27  69 SE23      30.08F
6HR MIN TEMP:  15; 6HR MAX TEMP:  36;

CHICAGO IL     PTSUNNY   30  24  78 S15       30.21F WCI  19
6HR MIN TEMP:  12; 6HR MAX TEMP:  30;

EAU CLAIRE WI  CLOUDY    31  22  69 S17G29    29.81F WCI  19
6HR MIN TEMP:  12; 6HR MAX TEMP:  31;

LA CROSSE WI   FAIR      37  27  67 S17G32    29.91F
6HR MIN TEMP:  18; 6HR MAX TEMP:  38;

$$

  *****  SOME NATIONAL WEATHER *****

CITY           SKY/WX    TMP DP  RH WIND       PRES   REMARKS
LA GUARDIA NY  FAIR      44  23  43 NW13      30.34R
6HR MIN TEMP:  36; 6HR MAX TEMP:  44;

RALEIGH NC     FAIR      58  35  42 VRB3      30.36F
6HR MIN TEMP:  39; 6HR MAX TEMP:  58;

ATLANTA GA     PTSUNNY   64  49  57 S7        30.26F
6HR MIN TEMP:  48; 6HR MAX TEMP:  65;

NEW ORLEANS LA PTSUNNY   76  68  76 VRB5      30.19F
6HR MIN TEMP:  65; 6HR MAX TEMP:  76;

OKLAHOMA CITY  CLOUDY    46  43  89 S21G26    29.97F
6HR MIN TEMP:  30; 6HR MAX TEMP:  46;

ALBUQUERQUE NM FAIR      52  38  58 CALM      29.97F
6HR MIN TEMP:  36; 6HR MAX TEMP:  52;

SALT LAKE CITY PTSUNNY   48  32  53 N16G32    29.56R
6HR MIN TEMP:  48; 6HR



USA.gov is the U.S. government's official web portal to all federal, state and local government web resources and services.